Schneifelwetter: Wetterstation Hallschlag, 537 m . NN
Wetterdaten: Mittwoch, 15.12.2010
Datum Zeit Temp. A. Feuchte A. Luftdruck Regen Wind Richtung Richtung Sonnenschein Helligkeit T Regen Taupunkt Windchill
15.12.2010 00:02 -7,3 C 91 % 1026 hPa 0,0 l/m 23,6 km/h (4 Bft) N 5 0 min 0 lux 0,00 min -8,5 C -21,0 C
15.12.2010 00:17 -7,3 C 91 % 1026 hPa 0,0 l/m 25,5 km/h (4 Bft) N 5 0 min 0 lux 0,00 min -8,5 C -21,8 C
15.12.2010 00:32 -7,3 C 91 % 1026 hPa 0,0 l/m 20,9 km/h (4 Bft) N 5 0 min 0 lux 0,00 min -8,5 C -19,6 C
15.12.2010 00:47 -7,2 C 91 % 1026 hPa 0,0 l/m 25,2 km/h (4 Bft) N 5 0 min 0 lux 0,00 min -8,4 C -21,6 C
15.12.2010 01:02 -7,2 C 91 % 1026 hPa 0,0 l/m 30,0 km/h (5 Bft) N 5 0 min 0 lux 0,00 min -8,4 C -23,5 C
15.12.2010 01:17 -7,2 C 91 % 1026 hPa 0,0 l/m 21,8 km/h (4 Bft) N 5 0 min 0 lux 0,00 min -8,4 C -19,9 C
15.12.2010 01:32 -7,2 C 91 % 1026 hPa 0,0 l/m 14,1 km/h (3 Bft) N 5 0 min 0 lux 0,00 min -8,4 C -15,0 C
15.12.2010 01:47 -7,1 C 91 % 1026 hPa 0,0 l/m 23,1 km/h (4 Bft) N 5 0 min 0 lux 0,00 min -8,3 C -20,4 C
15.12.2010 02:02 -7,1 C 91 % 1025 hPa 0,0 l/m 31,5 km/h (5 Bft) N 5 0 min 0 lux 0,00 min -8,3 C -23,9 C
15.12.2010 02:17 -7,2 C 90 % 1025 hPa 0,0 l/m 21,7 km/h (4 Bft) N 5 0 min 0 lux 0,00 min -8,6 C -19,9 C
15.12.2010 02:32 -7,6 C 90 % 1026 hPa 0,0 l/m 14,2 km/h (3 Bft) N 5 0 min 0 lux 0,00 min -8,9 C -15,6 C
15.12.2010 02:47 -7,9 C 90 % 1025 hPa 0,0 l/m 8,5 km/h (2 Bft) N 5 0 min 0 lux 0,00 min -9,2 C -10,5 C
15.12.2010 03:02 -7,9 C 91 % 1025 hPa 0,0 l/m 2,1 km/h (1 Bft) N 5 0 min 0 lux 0,00 min -9,1 C -7,9 C
15.12.2010 03:17 -7,8 C 92 % 1025 hPa 0,0 l/m 8,8 km/h (2 Bft) N 5 0 min 0 lux 0,00 min -8,9 C -10,8 C
15.12.2010 03:32 -7,9 C 92 % 1025 hPa 0,0 l/m 4,9 km/h (1 Bft) N 5 0 min 0 lux 0,00 min -9,0 C -7,9 C
15.12.2010 03:47 -8,4 C 91 % 1025 hPa 0,0 l/m 3,7 km/h (1 Bft) N 5 0 min 0 lux 0,00 min -9,6 C -8,4 C
15.12.2010 04:02 -8,8 C 91 % 1025 hPa 0,0 l/m 3,4 km/h (1 Bft) N 5 0 min 0 lux 0,00 min -10,0 C -8,8 C
15.12.2010 04:17 -9,3 C 91 % 1025 hPa 0,0 l/m 4,4 km/h (1 Bft) N 5 0 min 0 lux 0,00 min -10,5 C -9,3 C
15.12.2010 04:32 -9,8 C 92 % 1025 hPa 0,0 l/m 6,4 km/h (2 Bft) N 5 0 min 0 lux 0,00 min -10,8 C -9,7 C
15.12.2010 04:47 -9,5 C 93 % 1025 hPa 0,0 l/m 3,0 km/h (1 Bft) N 5 0 min 0 lux 0,00 min -10,4 C -9,5 C
15.12.2010 05:02 -9,4 C 93 % 1025 hPa 0,0 l/m 0,3 km/h (0 Bft) N 5 0 min 0 lux 0,00 min -10,3 C -9,4 C
15.12.2010 05:17 -9,2 C 94 % 1025 hPa 0,0 l/m 4,3 km/h (1 Bft) N 5 0 min 0 lux 0,00 min -10,0 C -9,2 C
15.12.2010 05:32 -8,8 C 94 % 1024 hPa 0,0 l/m 6,3 km/h (2 Bft) N 5 0 min 0 lux 0,00 min -9,6 C -8,8 C
15.12.2010 05:47 -8,8 C 94 % 1025 hPa 0,0 l/m 6,1 km/h (2 Bft) N 5 0 min 0 lux 0,00 min -9,6 C -8,8 C
15.12.2010 06:02 -8,0 C 95 % 1025 hPa 0,0 l/m 9,0 km/h (2 Bft) N 5 0 min 0 lux 0,00 min -8,7 C -11,2 C
15.12.2010 06:17 -7,8 C 95 % 1025 hPa 0,0 l/m 10,0 km/h (2 Bft) N 5 0 min 0 lux 0,00 min -8,5 C -12,1 C
15.12.2010 06:32 -7,9 C 95 % 1024 hPa 0,0 l/m 4,5 km/h (1 Bft) N 5 0 min 0 lux 0,00 min -8,6 C -7,9 C
15.12.2010 06:46 -7,6 C 95 % 1024 hPa 0,0 l/m 5,6 km/h (1 Bft) N 5 0 min 0 lux 0,00 min -8,3 C -7,6 C
15.12.2010 07:01 -7,2 C 96 % 1024 hPa 0,0 l/m 11,1 km/h (2 Bft) N 5 0 min 0 lux 0,00 min -7,7 C -12,5 C
15.12.2010 07:16 -6,7 C 96 % 1024 hPa 0,0 l/m 15,1 km/h (3 Bft) N 5 0 min 0 lux 0,00 min -7,2 C -15,2 C
15.12.2010 07:31 -6,3 C 96 % 1024 hPa 0,0 l/m 9,6 km/h (2 Bft) N 5 0 min 0 lux 0,00 min -6,8 C -10,0 C
15.12.2010 07:46 -6,2 C 96 % 1024 hPa 0,0 l/m 20,1 km/h (4 Bft) N 5 0 min 0 lux 0,00 min -6,7 C -17,7 C
15.12.2010 08:01 -6,0 C 95 % 1024 hPa 0,0 l/m 22,2 km/h (4 Bft) N 5 0 min 0 lux 0,00 min -6,7 C -18,5 C
15.12.2010 08:16 -6,1 C 95 % 1024 hPa 0,0 l/m 13,8 km/h (3 Bft) N 5 0 min 102 lux 0,00 min -6,8 C -13,5 C
15.12.2010 08:31 -5,9 C 95 % 1024 hPa 0,0 l/m 17,8 km/h (3 Bft) N 5 0 min 424 lux 0,00 min -6,6 C -16,0 C
15.12.2010 08:46 -5,5 C 95 % 1024 hPa 0,0 l/m 17,1 km/h (3 Bft) N 5 0 min 633 lux 0,00 min -6,2 C -15,0 C
15.12.2010 09:02 -5,1 C 96 % 1024 hPa 0,0 l/m 14,8 km/h (3 Bft) N 5 0 min 1,08 klux 0,00 min -5,6 C -13,0 C
15.12.2010 09:17 -4,8 C 96 % 1024 hPa 0,0 l/m 15,1 km/h (3 Bft) N 5 0 min 2,23 klux 0,00 min -5,3 C -12,9 C
15.12.2010 09:32 -4,6 C 96 % 1024 hPa 0,0 l/m 7,3 km/h (2 Bft) N 5 0 min 3,46 klux 0,00 min -5,1 C -5,7 C
15.12.2010 09:47 -4,3 C 96 % 1023 hPa 0,0 l/m 15,8 km/h (3 Bft) N 5 0 min 4,92 klux 0,00 min -4,8 C -12,7 C
15.12.2010 10:01 -3,9 C 95 % 1023 hPa 0,0 l/m 17,0 km/h (3 Bft) N 5 0 min 6,95 klux 0,00 min -4,6 C -13,0 C
15.12.2010 10:16 -3,7 C 95 % 1023 hPa 0,0 l/m 11,5 km/h (2 Bft) N 5 0 min 7,04 klux 0,00 min -4,4 C -8,9 C
15.12.2010 10:31 -3,4 C 94 % 1023 hPa 0,0 l/m 7,4 km/h (2 Bft) N 5 0 min 9,0 klux 0,00 min -4,2 C -4,5 C
15.12.2010 10:47 -3,1 C 94 % 1023 hPa 0,0 l/m 10,5 km/h (2 Bft) N 5 0 min 10,6 klux 0,00 min -3,9 C -7,3 C
15.12.2010 11:02 -2,7 C 93 % 1023 hPa 0,0 l/m 9,7 km/h (2 Bft) N 5 0 min 12,4 klux 0,00 min -3,7 C -6,2 C
15.12.2010 11:17 -2,5 C 93 % 1023 hPa 0,0 l/m 8,5 km/h (2 Bft) N 5 0 min 12,1 klux 0,00 min -3,5 C -4,8 C
15.12.2010 11:31 -2,3 C 92 % 1023 hPa 0,0 l/m 11,0 km/h (2 Bft) N 5 0 min 13,4 klux 0,00 min -3,4 C -6,8 C
15.12.2010 11:46 -2,1 C 92 % 1023 hPa 0,0 l/m 12,6 km/h (3 Bft) N 10 0 min 13,8 klux 0,00 min -3,2 C -7,9 C
15.12.2010 12:01 -2,0 C 92 % 1022 hPa 0,0 l/m 9,2 km/h (2 Bft) N 5 0 min 13,0 klux 0,00 min -3,1 C -4,9 C
15.12.2010 12:17 -1,9 C 93 % 1022 hPa 0,0 l/m 15,7 km/h (3 Bft) N 5 0 min 13,9 klux 0,00 min -2,9 C -9,7 C
15.12.2010 12:32 -1,7 C 93 % 1022 hPa 0,0 l/m 13,8 km/h (3 Bft) N 5 0 min 14,1 klux 0,00 min -2,7 C -8,3 C
15.12.2010 12:47 -1,8 C 93 % 1021 hPa 0,0 l/m 25,8 km/h (4 Bft) N 355 0 min 11,1 klux 0,00 min -2,8 C -14,5 C
15.12.2010 13:02 -1,8 C 93 % 1021 hPa 0,0 l/m 23,1 km/h (4 Bft) N 355 0 min 11,1 klux 0,00 min -2,8 C -13,4 C
15.12.2010 13:16 -2,0 C 94 % 1022 hPa 0,0 l/m 27,5 km/h (4 Bft) N 355 0 min 8,33 klux 0,00 min -2,8 C -15,4 C
15.12.2010 13:31 -2,3 C 94 % 1021 hPa 0,0 l/m 31,1 km/h (5 Bft) N-NW45 340 0 min 8,64 klux 0,00 min -3,1 C -17,0 C
15.12.2010 13:46 -2,3 C 93 % 1021 hPa 0,0 l/m 33,1 km/h (5 Bft) N-NW45 340 0 min 10,2 klux 0,00 min -3,3 C -17,6 C
15.12.2010 14:02 -2,2 C 92 % 1021 hPa 0,0 l/m 27,0 km/h (4 Bft) N67.5 355 0 min 17,4 klux 0,00 min -3,3 C -15,5 C
15.12.2010 14:17 -2,2 C 89 % 1021 hPa 0,0 l/m 22,5 km/h (4 Bft) N-NO 20 0 min 14,1 klux 0,00 min -3,8 C -13,6 C
15.12.2010 14:32 -2,2 C 86 % 1021 hPa 0,0 l/m 26,5 km/h (4 Bft) N-NO 20 0 min 37,0 klux 0,00 min -4,2 C -15,3 C
15.12.2010 14:47 -2,4 C 87 % 1021 hPa 0,0 l/m 24,5 km/h (4 Bft) N22.5 360 0 min 22,4 klux 0,00 min -4,3 C -14,8 C
15.12.2010 15:01 -2,5 C 87 % 1021 hPa 0,0 l/m 22,0 km/h (4 Bft) N45 350 0 min 15,9 klux 0,00 min -4,4 C -13,8 C
15.12.2010 15:16 -3,1 C 87 % 1021 hPa 0,0 l/m 20,5 km/h (4 Bft) N45 5 0 min 17,4 klux 0,00 min -4,9 C -13,9 C
15.12.2010 15:31 -3,7 C 86 % 1021 hPa 0,0 l/m 29,4 km/h (5 Bft) N22.5 5 0 min 16,5 klux 0,00 min -5,7 C -18,4 C
15.12.2010 15:47 -4,1 C 87 % 1021 hPa 0,0 l/m 22,8 km/h (4 Bft) N-NO22.5 15 0 min 14,9 klux 0,00 min -5,9 C -16,3 C
15.12.2010 16:02 -4,4 C 88 % 1021 hPa 0,0 l/m 19,7 km/h (3 Bft) N-NW45 340 0 min 11,6 klux 0,00 min -6,1 C -15,2 C
15.12.2010 16:17 -4,6 C 88 % 1021 hPa 0,0 l/m 27,2 km/h (4 Bft) N45 360 0 min 3,30 klux 0,00 min -6,3 C -18,8 C
15.12.2010 16:31 -4,8 C 89 % 1021 hPa 0,0 l/m 17,8 km/h (3 Bft) N45 360 0 min 2,16 klux 0,00 min -6,3 C -14,6 C
15.12.2010 16:46 -5,0 C 90 % 1021 hPa 0,0 l/m 17,8 km/h (3 Bft) N-NW22.5 340 0 min 588 lux 0,00 min -6,4 C -14,8 C
15.12.2010 17:01 -5,3 C 90 % 1021 hPa 0,0 l/m 17,6 km/h (3 Bft) N22.5 10 0 min 176 lux 0,00 min -6,7 C -15,1 C
15.12.2010 17:17 -5,5 C 90 % 1021 hPa 0,0 l/m 15,7 km/h (3 Bft) N-NW45 335 0 min 33 lux 0,00 min -6,9 C -14,1 C
15.12.2010 17:32 -6,0 C 91 % 1021 hPa 0,0 l/m 7,6 km/h (2 Bft) N-NW22.5 330 0 min 9 lux 0,00 min -7,2 C -7,5 C
15.12.2010 17:47 -6,3 C 91 % 1021 hPa 0,0 l/m 9,7 km/h (2 Bft) N-NW45 340 0 min 1 lux 0,00 min -7,5 C -10,1 C
15.12.2010 18:02 -6,8 C 90 % 1021 hPa 0,0 l/m 5,9 km/h (2 Bft) NW22.5 305 0 min 0 lux 0,00 min -8,2 C -6,8 C
15.12.2010 18:16 -7,3 C 91 % 1021 hPa 0,0 l/m 5,4 km/h (1 Bft) W-NW22.5 295 0 min 0 lux 0,00 min -8,5 C -7,3 C
15.12.2010 18:31 -7,9 C 91 % 1020 hPa 0,0 l/m 5,4 km/h (1 Bft) W-NW22.5 300 0 min 0 lux 0,00 min -9,1 C -7,9 C
15.12.2010 18:46 -8,0 C 92 % 1021 hPa 0,0 l/m 4,1 km/h (1 Bft) W-NW 285 0 min 0 lux 0,00 min -9,1 C -8,0 C
15.12.2010 19:02 -8,2 C 92 % 1020 hPa 0,0 l/m 3,6 km/h (1 Bft) W-NW 285 0 min 0 lux 0,00 min -9,3 C -8,2 C
15.12.2010 19:17 -8,5 C 92 % 1020 hPa 0,0 l/m 3,6 km/h (1 Bft) W-NW 285 0 min 0 lux 0,00 min -9,6 C -8,5 C
15.12.2010 19:32 -8,7 C 93 % 1021 hPa 0,0 l/m 1,5 km/h (1 Bft) N22.5 5 0 min 0 lux 0,00 min -9,6 C -8,7 C
15.12.2010 19:46 -8,2 C 95 % 1021 hPa 0,0 l/m 7,7 km/h (2 Bft) NW22.5 310 0 min 0 lux 0,00 min -8,9 C -9,9 C
15.12.2010 20:01 -7,6 C 95 % 1021 hPa 0,0 l/m 18,6 km/h (3 Bft) N-NW22.5 340 0 min 0 lux 0,00 min -8,3 C -18,6 C
15.12.2010 20:16 -7,4 C 95 % 1021 hPa 0,0 l/m 17,0 km/h (3 Bft) N67.5 350 0 min 0 lux 0,00 min -8,1 C -17,3 C
15.12.2010 20:32 -7,3 C 95 % 1021 hPa 0,0 l/m 9,2 km/h (2 Bft) N22.5 350 0 min 0 lux 0,00 min -8,0 C -10,7 C
15.12.2010 20:47 -7,0 C 95 % 1021 hPa 0,0 l/m 11,9 km/h (2 Bft) N45 350 0 min 0 lux 0,00 min -7,7 C -13,0 C
15.12.2010 21:02 -6,7 C 94 % 1020 hPa 0,0 l/m 15,4 km/h (3 Bft) N45 360 0 min 0 lux 0,00 min -7,5 C -15,4 C
15.12.2010 21:17 -6,8 C 94 % 1020 hPa 0,0 l/m 11,8 km/h (2 Bft) N-NW22.5 330 0 min 0 lux 0,00 min -7,6 C -12,7 C
15.12.2010 21:31 -6,9 C 94 % 1020 hPa 0,0 l/m 10,8 km/h (2 Bft) N-NW45 330 0 min 0 lux 0,00 min -7,7 C -11,9 C
15.12.2010 21:46 -7,1 C 94 % 1020 hPa 0,0 l/m 9,4 km/h (2 Bft) N-NW22.5 330 0 min 0 lux 0,00 min -7,9 C -10,7 C
15.12.2010 22:01 -7,0 C 94 % 1020 hPa 0,0 l/m 10,9 km/h (2 Bft) N45 355 0 min 0 lux 0,00 min -7,8 C -12,1 C
15.12.2010 22:17 -6,9 C 94 % 1020 hPa 0,0 l/m 9,6 km/h (2 Bft) N22.5 5 0 min 0 lux 0,00 min -7,7 C -10,7 C
15.12.2010 22:32 -6,8 C 94 % 1020 hPa 0,0 l/m 14,3 km/h (3 Bft) N22.5 360 0 min 0 lux 0,00 min -7,6 C -14,7 C
15.12.2010 22:47 -6,8 C 94 % 1020 hPa 0,0 l/m 13,4 km/h (3 Bft) N45 355 0 min 0 lux 0,00 min -7,6 C -14,0 C
15.12.2010 23:01 -6,9 C 93 % 1019 hPa 0,0 l/m 15,9 km/h (3 Bft) N-NW67.5 340 0 min 0 lux 0,00 min -7,8 C -16,0 C
15.12.2010 23:16 -7,1 C 93 % 1019 hPa 0,0 l/m 12,0 km/h (2 Bft) N67.5 355 0 min 0 lux 0,00 min -8,0 C -13,2 C
15.12.2010 23:31 -7,2 C 93 % 1019 hPa 0,0 l/m 12,6 km/h (3 Bft) N-NW45 330 0 min 0 lux 0,00 min -8,1 C -13,8 C
15.12.2010 23:47 -7,5 C 93 % 1019 hPa 0,0 l/m 9,6 km/h (2 Bft) N-NW22.5 340 0 min 0 lux 0,00 min -8,4 C -11,3 C
_ Min-Zeit 04:32 14:32 23:01 - 05:02 - - - - - 04:32 02:02
Minimum _ -9,8 C 86 % 1019 hPa - 0,3 km/h (0 Bft) - - - - - -10,8 C -23,9 C
_ Max-Zeit 12:32 07:01 00:02 00:02 13:46 - - 00:02 14:32 00:02 12:32 10:31
Maximum _ -1,7 C 96 % 1026 hPa 0,0 l/m 33,1 km/h
N-NW (5 Bft)
- - 0 min 37,0 klux 0,00 min -2,7 C -4,5 C
Durchschnitt _ -6,0 C 92 % 1023 hPa #0,0 l/m 14,1 km/h (3 Bft) N - #0 min. 3,77 klux #0 min. -7,0 C -12,7 C